[[{"header":{"parameterUnit":"m.s-1","parameterCategory":2,"la1":30.2991,"la2":30.254,"lo1":-89.0895,"lo2":-89.0444,"dy":0.0017,"dx":0.0017,"nx":28,"ny":28,"refTime":"2025-12-28T09:00:00:Z","depth":"0","parameterNumber":2,"parameterNumberName":"U-component_of_CURRENTS"},"data":[0,0,0,0,0,0,0,0,0,0,0,0,0,0,0,0,0,0,0,0,0,0,0,0,0,0,0,0,0,0,0,0,0,0,0,0,0,0,0,0,0,0,0,0,0,0,0,0,0,0,0,0,0,0,0,0,0,0,0.2596,0.2596,0,0.2601,0.2601,0.2601,0.2588,0.2588,0.2588,0.2588,0.2559,0.2559,0.2558,0,0,0,0,0,0,0,0,0,0,0,0,0,0.2563,0.2563,0.2596,0.2596,0.2597,0.2601,0.2601,0.2601,0.2588,0.2588,0.2588,0.2587,0.256,0.2559,0.2558,0,0,0,0,0,0,0,0,0,0,0,0,0,0.257,0.2563,0.2596,0.2593,0.2593,0.2601,0.2601,0.2601,0.2588,0.2588,0.2588,0.2587,0.256,0.2559,0.2558,0.2555,0,0,0.2555,0.2555,0,0,0,0,0,0,0,0,0.257,0.2571,0.2593,0.2594,0.2594,0.2596,0.2579,0.2585,0.2588,0.2587,0.2588,0.2587,0.2571,0.2569,0.2566,0.2554,0.2553,0.2555,0.2554,0.2554,0.2554,0,0,0,0,0,0,0,0.2569,0.2571,0.2595,0.2594,0.2594,0.2588,0.2588,0.258,0.2577,0.2587,0.2587,0.2592,0.257,0.2567,0.2566,0.2552,0.2555,0.2554,0.2554,0.2553,0.2559,0.256,0,0,0,0,0,0,0.2576,0.2571,0.2595,0.2595,0.2585,0.2589,0.2589,0.2593,0.2577,0.2576,0.2592,0.2592,0.2569,0.2567,0.2564,0.2583,0.2554,0.2553,0.2552,0.2558,0.2559,0.256,0,0,0,0,0,0,0.2575,0.2578,0.2595,0.2586,0.2588,0.259,0.2594,0.2593,0.2596,0.2583,0.258,0.2597,0.2569,0.2566,0.2564,0.2581,0.2553,0.2552,0.2557,0.2558,0.2559,0.2607,0,0,0,0,0,0,0.2574,0.2578,0.2581,0.2586,0.2589,0.2606,0.2595,0.2594,0.2601,0.26,0.2586,0.2583,0.2568,0.2566,0.2563,0.2579,0.2551,0.2556,0.2558,0.2559,0.2604,0.2609,0.2613,0,0,0,0,0,0.2573,0.2582,0.2581,0.2584,0.2593,0.2607,0.2607,0.2606,0.2602,0.2606,0.2597,0.2583,0.2573,0.2565,0.2562,0.2579,0.2556,0.2557,0.2559,0.2602,0.2608,0.2613,0,0,0,0,0,0,0.2568,0.2582,0.2581,0.2593,0.2602,0.2606,0.2611,0.2611,0.2608,0.2606,0.2589,0.2586,0.2592,0.2579,0.2571,0.2585,0.2563,0.2565,0.2597,0.2603,0.2607,0.2615,0.255,0,0,0,0,0,0.257,0.2579,0.2591,0.26,0.2606,0.2609,0.2614,0.2616,0.2616,0.2614,0.2603,0.2595,0.2596,0.2594,0.2587,0.2592,0.26,0.2602,0.2607,0.2611,0.2615,0.2644,0.2652,0.2565,0.2565,0.2565,0,0,0.2569,0.258,0.2583,0.26,0.2604,0.2619,0.2611,0.2624,0.2635,0.2611,0.2616,0.261,0.2601,0.2609,0.2611,0.26,0.2642,0.2613,0.2616,0.2619,0.2647,0.2655,0.2663,0.2566,0.2566,0.2566,0,0,0.2577,0.2584,0.2594,0.2607,0.2623,0.2628,0.2636,0.2643,0.2645,0.2651,0.2642,0.2648,0.2637,0.2641,0.2641,0.2668,0.2666,0.2665,0.2695,0.2723,0.2731,0.2737,0.2771,0.278,0.2668,0.2668,0.2668,0,0.2575,0.259,0.2599,0.2617,0.2628,0.2636,0.2651,0.2659,0.2664,0.2672,0.2658,0.2667,0.2656,0.2682,0.2689,0.268,0.2696,0.2675,0.273,0.2737,0.2743,0.2776,0.2786,0.267,0.267,0.267,0.2669,0,0.2591,0.2606,0.2615,0.2638,0.2652,0.2667,0.2684,0.2698,0.2699,0.2706,0.2727,0.2717,0.2726,0.2725,0.2713,0.2754,0.2752,0.2734,0.2718,0.2755,0.2787,0.2796,0.2674,0.2673,0.2672,0.2671,0,0,0.258,0.2617,0.2621,0.2635,0.2664,0.2678,0.2706,0.2732,0.2759,0.276,0.279,0.2791,0.2792,0.2792,0.2786,0.2804,0.286,0.2788,0.2788,0.2825,0.2933,0.2964,0.2976,0.2853,0.2855,0.2856,0.2943,0,0.2587,0.2619,0.2637,0.2667,0.2684,0.2707,0.2735,0.2763,0.2783,0.2815,0.2822,0.2845,0.2817,0.283,0.2846,0.2858,0.2885,0.2839,0.2888,0.289,0.2916,0.2988,0.3011,0.3094,0.2952,0.2954,0.2955,0,0.2594,0.2616,0.2644,0.2686,0.2696,0.2717,0.2769,0.2798,0.285,0.2866,0.2896,0.2905,0.2943,0.2907,0.2959,0.2933,0.2938,0.2942,0.2945,0.2963,0.2938,0.3031,0.3115,0.3134,0.2969,0.2968,0.2967,0,0.258,0.2621,0.2641,0.2655,0.2705,0.2725,0.2755,0.281,0.2846,0.2906,0.2942,0.2978,0.3012,0.3023,0.3039,0.3004,0.3098,0.3049,0.3085,0.3087,0.3111,0.3113,0.3222,0.3088,0.3088,0.3088,0.3087,0,0.2579,0.2595,0.2637,0.2649,0.2685,0.2722,0.2767,0.2812,0.2879,0.2934,0.2969,0.3028,0.3043,0.3096,0.3083,0.3136,0.3141,0.3115,0.3121,0.3129,0.3132,0.3149,0.3134,0.3091,0.309,0.3089,0.3089,0,0.2556,0.2584,0.2611,0.2661,0.2678,0.2705,0.2772,0.2807,0.2882,0.2961,0.2987,0.3085,0.3166,0.3188,0.3229,0.3213,0.3205,0.3251,0.3268,0.3274,0.3302,0.3287,0.322,0.3102,0.3305,0.3306,0.3307,0,0.2544,0.2556,0.2609,0.2623,0.2643,0.2685,0.2713,0.2794,0.2846,0.2998,0.3042,0.316,0.3244,0.3343,0.336,0.3388,0.3273,0.3396,0.3325,0.334,0.3327,0.3154,0.3043,0.3379,0.3381,0.3383,0.3384,0,0.2516,0.2536,0.2556,0.2591,0.2619,0.2649,0.2709,0.2755,0.2866,0.2953,0.3087,0.3175,0.3334,0.3405,0.347,0.3475,0.3323,0.3424,0.344,0.3409,0.3227,0.3105,0.3285,0.3396,0.3395,0.3394,0.3393,0.3393,0.2483,0.2491,0.2518,0.2543,0.2572,0.2598,0.261,0.27,0.2786,0.293,0.3064,0.3228,0.3431,0.3548,0.3516,0.3577,0.341,0.3537,0.3524,0.3349,0.3217,0.3432,0.3542,0.3542,0.3542,0.3541,0.3541,0,0.2426,0.244,0.2464,0.2484,0.2484,0.2526,0.2587,0.2607,0.2686,0.2899,0.3025,0.3344,0.3497,0.3624,0.377,0.3715,0.3488,0.3657,0.3447,0.3327,0.357,0.3561,0.3681,0.3681,0.3681,0.3681,0.3681,0.3681,0.2396,0.2387,0.2399,0.2379,0.2394,0.2378,0.2397,0.2465,0.2606,0.2833,0.3058,0.3244,0.3641,0.3985,0.4033,0.3919,0.361,0.3541,0.339,0.3666,0.3653,0.3641,0.3631,0.3764,0.3764,0.3047,0.3043,0.3039]},{"header":{"parameterUnit":"m.s-1","parameterCategory":2,"la1":30.2991,"la2":30.254,"lo1":-89.0895,"lo2":-89.0444,"dy":0.0017,"dx":0.0017,"nx":28,"ny":28,"refTime":"2025-12-28T09:00:00:Z","depth":"0","parameterNumber":3,"parameterNumberName":"V-component_of_CURRENTS"},"data":[0,0,0,0,0,0,0,0,0,0,0,0,0,0,0,0,0,0,0,0,0,0,0,0,0,0,0,0,0,0,0,0,0,0,0,0,0,0,0,0,0,0,0,0,0,0,0,0,0,0,0,0,0,0,0,0,0,0,-0.0229,-0.0229,0,-0.0281,-0.0282,-0.0283,-0.0317,-0.0317,-0.0317,-0.0318,-0.0371,-0.0372,-0.0374,0,0,0,0,0,0,0,0,0,0,0,0,0,-0.021,-0.021,-0.0229,-0.0229,-0.023,-0.0281,-0.0282,-0.0283,-0.0317,-0.0317,-0.0317,-0.0318,-0.0371,-0.0372,-0.0374,0,0,0,0,0,0,0,0,0,0,0,0,0,-0.0236,-0.021,-0.0229,-0.0253,-0.0255,-0.0281,-0.0282,-0.0283,-0.0317,-0.0317,-0.0317,-0.0318,-0.037,-0.0372,-0.0374,-0.0381,0,0,-0.038,-0.0381,0,0,0,0,0,0,0,0,-0.0235,-0.0237,-0.0249,-0.0251,-0.0254,-0.0292,-0.0295,-0.0316,-0.0317,-0.0294,-0.0318,-0.0318,-0.0344,-0.0348,-0.0359,-0.0383,-0.0386,-0.038,-0.0381,-0.0382,-0.0383,0,0,0,0,0,0,0,-0.0233,-0.0235,-0.025,-0.0249,-0.0253,-0.0279,-0.0282,-0.0299,-0.0318,-0.0296,-0.0299,-0.0303,-0.0346,-0.0357,-0.036,-0.0387,-0.038,-0.0382,-0.0383,-0.0384,-0.0407,-0.0406,0,0,0,0,0,0,-0.0222,-0.0233,-0.0249,-0.0252,-0.0244,-0.0278,-0.0282,-0.028,-0.0318,-0.0323,-0.0303,-0.0305,-0.0353,-0.0358,-0.0362,-0.0353,-0.0382,-0.0384,-0.0385,-0.0407,-0.0406,-0.0406,0,0,0,0,0,0,-0.0221,-0.0222,-0.0247,-0.0244,-0.0248,-0.0278,-0.0276,-0.0281,-0.0289,-0.0323,-0.0329,-0.0305,-0.0354,-0.0359,-0.037,-0.0356,-0.0385,-0.0386,-0.0408,-0.0407,-0.0406,-0.0347,0,0,0,0,0,0,-0.022,-0.0222,-0.0217,-0.0243,-0.0248,-0.025,-0.0276,-0.0282,-0.0292,-0.0294,-0.0326,-0.0332,-0.0354,-0.0367,-0.0372,-0.0359,-0.0388,-0.0408,-0.0407,-0.0406,-0.035,-0.0344,-0.034,0,0,0,0,0,-0.0219,-0.0206,-0.0217,-0.0219,-0.0241,-0.0249,-0.0254,-0.0277,-0.0291,-0.0287,-0.0311,-0.0331,-0.0364,-0.0368,-0.0374,-0.0361,-0.0409,-0.0408,-0.0406,-0.0352,-0.0345,-0.034,0,0,0,0,0,0,-0.0195,-0.0209,-0.0221,-0.0213,-0.0226,-0.0254,-0.0254,-0.0272,-0.0289,-0.0292,-0.0325,-0.0332,-0.0337,-0.0357,-0.036,-0.0365,-0.0389,-0.0389,-0.0346,-0.034,-0.0335,-0.0317,-0.0389,0,0,0,0,0,-0.0188,-0.0181,-0.0201,-0.0195,-0.0199,-0.0227,-0.0234,-0.0249,-0.0268,-0.0276,-0.0299,-0.0322,-0.0337,-0.0344,-0.0362,-0.0364,-0.0391,-0.036,-0.0355,-0.0351,-0.034,-0.0372,-0.0369,-0.0402,-0.0402,-0.0402,0,0,-0.0178,-0.0184,-0.0181,-0.0189,-0.0203,-0.0197,-0.0231,-0.0235,-0.023,-0.0278,-0.0277,-0.0306,-0.0334,-0.0337,-0.034,-0.0351,-0.0355,-0.0349,-0.0345,-0.0337,-0.037,-0.0367,-0.0364,-0.0401,-0.0401,-0.0401,0,0,-0.0147,-0.0158,-0.0141,-0.0147,-0.0159,-0.0174,-0.0171,-0.0194,-0.0204,-0.021,-0.0242,-0.026,-0.0284,-0.0301,-0.0312,-0.029,-0.0329,-0.0297,-0.0256,-0.0286,-0.0284,-0.0282,-0.0312,-0.0313,-0.0293,-0.0292,-0.0292,0,-0.0135,-0.0115,-0.0138,-0.0122,-0.0119,-0.0157,-0.0136,-0.015,-0.0174,-0.0177,-0.0199,-0.0238,-0.0265,-0.0266,-0.026,-0.0278,-0.0303,-0.0275,-0.028,-0.0278,-0.0278,-0.0308,-0.031,-0.0289,-0.029,-0.029,-0.029,0,-0.0092,-0.0077,-0.0067,-0.0057,-0.0058,-0.0046,-0.0065,-0.0069,-0.009,-0.0109,-0.0121,-0.0166,-0.0186,-0.02,-0.0224,-0.0226,-0.0248,-0.0271,-0.0293,-0.0271,-0.0305,-0.0308,-0.0285,-0.0286,-0.0287,-0.0288,0,0,-0.0058,-0.0038,-0.0034,-0.0014,-0.002,-0.0011,-0.0002,-0.0,0.0012,-0.0029,-0.002,-0.0061,-0.0095,-0.011,-0.0148,-0.0176,-0.0197,-0.0215,-0.0218,-0.0241,-0.0265,-0.0297,-0.0305,-0.0223,-0.0224,-0.0224,-0.0292,0,-0.0015,0.0035,0.0029,0.0076,0.0102,0.0078,0.0097,0.0089,0.0067,0.0064,0.0009,-0.0002,-0.0057,-0.0068,-0.0104,-0.0171,-0.0203,-0.0176,-0.0286,-0.0289,-0.0318,-0.0308,-0.0333,-0.0397,-0.0295,-0.0296,-0.0296,0,0.0031,0.0062,0.0117,0.0156,0.0165,0.0183,0.0204,0.0214,0.0191,0.0173,0.0138,0.0093,0.005,-0.0004,-0.0108,-0.0089,-0.0168,-0.0228,-0.0232,-0.0283,-0.0327,-0.0404,-0.0407,-0.0631,-0.0302,-0.0301,-0.0301,0,0.0078,0.0125,0.0175,0.0186,0.0219,0.0238,0.0251,0.0245,0.0268,0.0236,0.0243,0.0171,0.0146,0.0039,-0.0088,-0.0098,-0.0209,-0.0241,-0.0345,-0.0348,-0.0401,-0.0408,-0.0629,-0.0316,-0.0315,-0.0315,-0.0315,0,0.013,0.0172,0.0201,0.0229,0.0298,0.029,0.0346,0.0344,0.0349,0.039,0.0302,0.0315,0.0155,0.0073,-0.0058,-0.0208,-0.019,-0.0333,-0.0366,-0.0381,-0.0386,-0.0608,-0.0738,-0.0318,-0.0317,-0.0317,-0.0316,0,0.0177,0.0193,0.0258,0.0302,0.0322,0.0367,0.0421,0.0462,0.0447,0.0494,0.0491,0.0424,0.0314,0.0146,-0.0026,-0.0158,-0.0452,-0.0366,-0.0372,-0.0405,-0.0711,-0.0835,-0.1086,-0.1221,-0.0491,-0.0492,-0.0493,0,0.0207,0.0245,0.0318,0.0364,0.0387,0.0448,0.0501,0.0512,0.0563,0.0572,0.0612,0.0517,0.0475,0.02,-0.0058,-0.03,-0.0507,-0.0487,-0.0514,-0.0732,-0.0896,-0.0984,-0.1086,-0.0564,-0.0565,-0.0567,-0.0568,0,0.0269,0.0291,0.0348,0.0445,0.0508,0.0588,0.066,0.0719,0.0742,0.0775,0.0806,0.0767,0.05,0.0249,-0.0097,-0.0286,-0.0687,-0.0519,-0.075,-0.0976,-0.1082,-0.1224,-0.0517,-0.0578,-0.0577,-0.0577,-0.0576,-0.0575,0.0318,0.0369,0.0442,0.0535,0.0615,0.0719,0.079,0.087,0.0956,0.1011,0.0966,0.0933,0.0541,0.0067,-0.0228,-0.0785,-0.0787,-0.0948,-0.108,-0.1146,-0.1291,-0.0603,-0.0699,-0.0699,-0.0699,-0.0698,-0.0698,0,0.0379,0.0437,0.0528,0.0638,0.0735,0.0764,0.0894,0.0959,0.1067,0.1122,0.1132,0.0907,0.0419,-0.0088,-0.0803,-0.1234,-0.142,-0.15,-0.1648,-0.1725,-0.1115,-0.1132,-0.1321,-0.1321,-0.132,-0.132,-0.132,-0.132,0.0413,0.0508,0.0552,0.0717,0.0797,0.0919,0.0994,0.1085,0.115,0.1184,0.1152,0.1093,0.0626,-0.0607,-0.1538,-0.1768,-0.2142,-0.2219,-0.2396,-0.1995,-0.1953,-0.1914,-0.196,-0.2319,-0.2321,-0.2954,-0.2961,-0.2965]}],[{"header":{"parameterUnit":"m.s-1","parameterCategory":2,"la1":30.2991,"la2":30.254,"lo1":-89.0895,"lo2":-89.0444,"dy":0.0017,"dx":0.0017,"nx":28,"ny":28,"refTime":"2025-12-28T09:00:00:Z","depth":"2","parameterNumber":2,"parameterNumberName":"U-component_of_CURRENTS"},"data":[0,0,0,0,0,0,0,0,0,0,0,0,0,0,0,0,0,0,0,0,0,0,0,0,0,0,0,0,0,0,0,0,0,0,0,0,0,0,0,0,0,0,0,0,0,0,0,0,0,0,0,0,0,0,0,0,0,0,0.257,0.257,0,0.2575,0.2575,0.2575,0.2563,0.2563,0.2563,0.2563,0.2536,0.2535,0.2535,0,0,0,0,0,0,0,0,0,0,0,0,0,0.2536,0.2537,0.257,0.257,0.257,0.2575,0.2575,0.2575,0.2563,0.2563,0.2563,0.2563,0.2536,0.2535,0.2535,0,0,0,0,0,0,0,0,0,0,0,0,0,0.2544,0.2537,0.257,0.2568,0.2568,0.2575,0.2575,0.2575,0.2563,0.2563,0.2563,0.2563,0.2536,0.2535,0.2534,0.2531,0,0,0.2531,0.2531,0,0,0,0,0,0,0,0,0.2544,0.2545,0.2568,0.2568,0.2568,0.2571,0.2553,0.2559,0.2563,0.2561,0.2563,0.2563,0.2547,0.2545,0.2542,0.253,0.2529,0.2531,0.2531,0.253,0.253,0,0,0,0,0,0,0,0.2543,0.2545,0.2569,0.2568,0.2568,0.2562,0.2563,0.2554,0.2552,0.2562,0.2562,0.2567,0.2546,0.2543,0.2541,0.2528,0.2531,0.2531,0.253,0.253,0.2535,0.2536,0,0,0,0,0,0,0.255,0.2544,0.2569,0.2569,0.2559,0.2563,0.2564,0.2568,0.2553,0.2551,0.2567,0.2567,0.2545,0.2543,0.254,0.256,0.253,0.253,0.2529,0.2535,0.2536,0.2536,0,0,0,0,0,0,0.2549,0.2552,0.2568,0.2559,0.2561,0.2564,0.2568,0.2568,0.2571,0.2558,0.2555,0.2573,0.2545,0.2542,0.2541,0.2558,0.2529,0.2528,0.2534,0.2535,0.2536,0.2583,0,0,0,0,0,0,0.2548,0.2551,0.2555,0.256,0.2562,0.258,0.2569,0.2568,0.2576,0.2575,0.2561,0.2558,0.2544,0.2542,0.254,0.2556,0.2527,0.2533,0.2534,0.2536,0.2581,0.2586,0.259,0,0,0,0,0,0.2547,0.2555,0.2555,0.2558,0.2567,0.258,0.2581,0.258,0.2577,0.2581,0.2573,0.2559,0.2549,0.2542,0.2539,0.2555,0.2532,0.2534,0.2535,0.2579,0.2585,0.259,0,0,0,0,0,0,0.2542,0.2556,0.2555,0.2567,0.2576,0.258,0.2586,0.2586,0.2583,0.2582,0.2565,0.2562,0.2568,0.2555,0.2547,0.2561,0.254,0.2541,0.2574,0.2579,0.2584,0.2592,0.2527,0,0,0,0,0,0.2544,0.2553,0.2565,0.2574,0.258,0.2584,0.2589,0.2591,0.2591,0.259,0.2579,0.2571,0.2572,0.257,0.2564,0.2569,0.2576,0.2578,0.2583,0.2587,0.2592,0.262,0.2628,0.2542,0.2542,0.2542,0,0,0.2543,0.2554,0.2558,0.2574,0.2579,0.2593,0.2586,0.2599,0.261,0.2587,0.2592,0.2586,0.2577,0.2585,0.2587,0.2576,0.2618,0.2589,0.2593,0.2595,0.2623,0.2631,0.2639,0.2543,0.2543,0.2542,0,0,0.2551,0.2559,0.2569,0.2581,0.2598,0.2603,0.2611,0.2618,0.262,0.2627,0.2618,0.2624,0.2614,0.2618,0.2618,0.2645,0.2643,0.2642,0.2672,0.2699,0.2707,0.2713,0.2747,0.2756,0.2644,0.2644,0.2644,0,0.255,0.2565,0.2574,0.2592,0.2603,0.2611,0.2626,0.2634,0.2639,0.2647,0.2634,0.2643,0.2632,0.2658,0.2666,0.2657,0.2673,0.2651,0.2707,0.2713,0.2719,0.2752,0.2761,0.2647,0.2646,0.2646,0.2646,0,0.2566,0.258,0.259,0.2613,0.2627,0.2642,0.2659,0.2672,0.2675,0.2681,0.2702,0.2693,0.2703,0.2702,0.2689,0.273,0.2729,0.2711,0.2694,0.2731,0.2763,0.2772,0.265,0.2649,0.2649,0.2648,0,0,0.2556,0.2592,0.2596,0.261,0.2639,0.2652,0.2681,0.2707,0.2734,0.2735,0.2765,0.2766,0.2768,0.2768,0.2762,0.278,0.2836,0.2764,0.2765,0.2801,0.2908,0.2937,0.2949,0.2829,0.2831,0.2832,0.2918,0,0.2563,0.2595,0.2612,0.2642,0.2659,0.2682,0.271,0.2738,0.2758,0.279,0.2797,0.282,0.2793,0.2806,0.2822,0.2834,0.286,0.2815,0.2863,0.2865,0.2889,0.2961,0.2642,0.2695,0.2927,0.2928,0.2929,0,0.257,0.2592,0.2619,0.2662,0.2672,0.2692,0.2744,0.2772,0.2824,0.2841,0.2871,0.288,0.2918,0.2883,0.2934,0.2908,0.2914,0.2917,0.292,0.2936,0.2911,0.2692,0.2703,0.2944,0.2943,0.2942,0.2941,0,0.2556,0.2597,0.2617,0.2631,0.268,0.2701,0.2731,0.2786,0.2821,0.2882,0.2917,0.2953,0.2987,0.2998,0.3014,0.2979,0.3071,0.3023,0.3057,0.3058,0.2792,0.2769,0.3061,0.3061,0.3061,0.3061,0.3061,0,0.2556,0.2572,0.2613,0.2626,0.2662,0.2699,0.2744,0.2788,0.2855,0.2909,0.2945,0.3003,0.3017,0.307,0.3057,0.3109,0.3113,0.3087,0.3092,0.2803,0.2781,0.2989,0.298,0.3064,0.3063,0.3063,0.3062,0,0.2534,0.2561,0.2589,0.2638,0.2655,0.2682,0.2749,0.2784,0.2859,0.2937,0.2963,0.306,0.3139,0.3161,0.3201,0.3184,0.3211,0.3221,0.2896,0.2864,0.3164,0.3156,0.3268,0.327,0.3272,0.3273,0.3275,0,0.2522,0.2534,0.2587,0.2601,0.2621,0.2663,0.2691,0.2772,0.2823,0.2974,0.3017,0.3133,0.3201,0.3297,0.3231,0.3235,0.3292,0.3007,0.289,0.3197,0.319,0.3179,0.3169,0.2542,0.2538,0.2534,0.253,0,0.2495,0.2515,0.2535,0.257,0.2597,0.2627,0.2687,0.2732,0.2842,0.2911,0.3043,0.3116,0.3198,0.3065,0.3094,0.3054,0.298,0.2935,0.3318,0.2573,0.2529,0.2518,0.2527,0.2494,0.2498,0.2501,0.2502,0.2504,0.2462,0.247,0.2497,0.2522,0.2551,0.2577,0.2589,0.2603,0.2663,0.2677,0.2895,0.2847,0.2895,0.2747,0.2703,0.2648,0.2853,0.2717,0.272,0.273,0.2665,0.263,0.2601,0.2605,0.2609,0.2612,0.2615,0,0.2381,0.242,0.2444,0.2463,0.2427,0.2506,0.2565,0.2467,0.2428,0.2447,0.2461,0.2265,0.2209,0.2271,0.2109,0.2184,0.2066,0.2136,0.1916,0.1955,0.199,0.1877,0.1609,0.1606,0.1603,0.1601,0,0,0.2345,0.2322,0.2333,0.229,0.2329,0.2226,0.2241,0.2104,0.2041,0.1883,0.1814,0.1914,0.2126,0.1758,0.1782,0.1663,0.1778,0.1603,0.2403,0.2175,0.2204,0.2325,0.2201,0,0,0,0,0]},{"header":{"parameterUnit":"m.s-1","parameterCategory":2,"la1":30.2991,"la2":30.254,"lo1":-89.0895,"lo2":-89.0444,"dy":0.0017,"dx":0.0017,"nx":28,"ny":28,"refTime":"2025-12-28T09:00:00:Z","depth":"2","parameterNumber":3,"parameterNumberName":"V-component_of_CURRENTS"},"data":[0,0,0,0,0,0,0,0,0,0,0,0,0,0,0,0,0,0,0,0,0,0,0,0,0,0,0,0,0,0,0,0,0,0,0,0,0,0,0,0,0,0,0,0,0,0,0,0,0,0,0,0,0,0,0,0,0,0,-0.0176,-0.0176,0,-0.0228,-0.0228,-0.0229,-0.0264,-0.0265,-0.0265,-0.0265,-0.0319,-0.032,-0.0321,0,0,0,0,0,0,0,0,0,0,0,0,0,-0.0157,-0.0157,-0.0176,-0.0176,-0.0177,-0.0228,-0.0228,-0.0229,-0.0264,-0.0265,-0.0265,-0.0265,-0.0318,-0.032,-0.0321,0,0,0,0,0,0,0,0,0,0,0,0,0,-0.0183,-0.0157,-0.0176,-0.02,-0.0203,-0.0228,-0.0228,-0.0229,-0.0264,-0.0265,-0.0265,-0.0265,-0.0318,-0.032,-0.0322,-0.0327,0,0,-0.0327,-0.0328,0,0,0,0,0,0,0,0,-0.0182,-0.0184,-0.0196,-0.0199,-0.0202,-0.0239,-0.0242,-0.0262,-0.0264,-0.0242,-0.0265,-0.0265,-0.0292,-0.0296,-0.0306,-0.033,-0.0332,-0.0327,-0.0329,-0.0329,-0.033,0,0,0,0,0,0,0,-0.018,-0.0182,-0.0197,-0.0197,-0.02,-0.0226,-0.0229,-0.0246,-0.0265,-0.0244,-0.0246,-0.0251,-0.0293,-0.0304,-0.0307,-0.0333,-0.0327,-0.0329,-0.033,-0.0331,-0.0353,-0.0353,0,0,0,0,0,0,-0.0169,-0.018,-0.0195,-0.0199,-0.0191,-0.0226,-0.023,-0.0227,-0.0265,-0.0271,-0.0251,-0.0252,-0.0301,-0.0305,-0.0309,-0.0301,-0.0329,-0.0331,-0.0332,-0.0354,-0.0353,-0.0353,0,0,0,0,0,0,-0.0168,-0.017,-0.0193,-0.0191,-0.0195,-0.0225,-0.0223,-0.0228,-0.0237,-0.027,-0.0276,-0.0253,-0.0301,-0.0307,-0.0317,-0.0304,-0.0332,-0.0334,-0.0355,-0.0354,-0.0353,-0.0295,0,0,0,0,0,0,-0.0167,-0.0169,-0.0165,-0.0189,-0.0195,-0.0197,-0.0223,-0.0229,-0.0239,-0.0242,-0.0274,-0.028,-0.0302,-0.0314,-0.0319,-0.0307,-0.0335,-0.0355,-0.0354,-0.0353,-0.0298,-0.0292,-0.0288,0,0,0,0,0,-0.0166,-0.0153,-0.0164,-0.0166,-0.0188,-0.0196,-0.0201,-0.0224,-0.0239,-0.0235,-0.0259,-0.0278,-0.0312,-0.0315,-0.0321,-0.0309,-0.0356,-0.0354,-0.0353,-0.03,-0.0293,-0.0288,0,0,0,0,0,0,-0.0143,-0.0157,-0.0169,-0.0161,-0.0174,-0.0201,-0.0202,-0.0219,-0.0236,-0.024,-0.0273,-0.028,-0.0285,-0.0304,-0.0308,-0.0313,-0.0336,-0.0336,-0.0294,-0.0288,-0.0283,-0.0266,-0.0337,0,0,0,0,0,-0.0136,-0.0129,-0.0149,-0.0143,-0.0147,-0.0174,-0.0182,-0.0197,-0.0216,-0.0224,-0.0247,-0.027,-0.0285,-0.0292,-0.031,-0.0312,-0.0338,-0.0308,-0.0303,-0.0298,-0.0288,-0.032,-0.0317,-0.0349,-0.0349,-0.0349,0,0,-0.0126,-0.0132,-0.0129,-0.0137,-0.0151,-0.0145,-0.0179,-0.0184,-0.0178,-0.0226,-0.0226,-0.0254,-0.0282,-0.0285,-0.0288,-0.0299,-0.0303,-0.0297,-0.0293,-0.0285,-0.0319,-0.0316,-0.0313,-0.0348,-0.0348,-0.0348,0,0,-0.0096,-0.0107,-0.009,-0.0095,-0.0108,-0.0122,-0.012,-0.0143,-0.0153,-0.0159,-0.0191,-0.0209,-0.0233,-0.0249,-0.0261,-0.0239,-0.0278,-0.0246,-0.0205,-0.0236,-0.0234,-0.0232,-0.0262,-0.0263,-0.0242,-0.0242,-0.0241,0,-0.0085,-0.0064,-0.0087,-0.0071,-0.0068,-0.0106,-0.0085,-0.01,-0.0124,-0.0126,-0.0149,-0.0187,-0.0215,-0.0216,-0.0209,-0.0227,-0.0252,-0.0225,-0.023,-0.0228,-0.0228,-0.0259,-0.0261,-0.0239,-0.0239,-0.0239,-0.024,0,-0.0042,-0.0027,-0.0017,-0.0007,-0.0007,0.0004,-0.0015,-0.0019,-0.004,-0.0059,-0.0072,-0.0116,-0.0137,-0.0151,-0.0174,-0.0176,-0.0199,-0.0221,-0.0243,-0.0221,-0.0255,-0.0258,-0.0234,-0.0235,-0.0236,-0.0237,0,0,-0.0009,0.0011,0.0015,0.0036,0.0029,0.0038,0.0048,0.0049,0.006,0.002,0.0028,-0.0012,-0.0047,-0.0062,-0.01,-0.0127,-0.0149,-0.0166,-0.0169,-0.0192,-0.0218,-0.025,-0.0258,-0.0175,-0.0176,-0.0176,-0.0244,0,0.0033,0.0084,0.0078,0.0125,0.015,0.0126,0.0145,0.0137,0.0116,0.0112,0.0057,0.0046,-0.0009,-0.002,-0.0057,-0.0123,-0.0155,-0.0128,-0.0238,-0.0241,-0.0271,-0.0261,-0.0206,-0.0263,-0.0248,-0.0248,-0.0249,0,0.0079,0.011,0.0165,0.0204,0.0213,0.023,0.0252,0.0261,0.0238,0.022,0.0185,0.0139,0.0097,0.0043,-0.0061,-0.0043,-0.0121,-0.0181,-0.0185,-0.0236,-0.028,-0.0284,-0.0271,-0.0255,-0.0255,-0.0254,-0.0254,0,0.0125,0.0172,0.0222,0.0233,0.0266,0.0285,0.0297,0.0291,0.0314,0.0282,0.0289,0.0217,0.0191,0.0084,-0.0042,-0.0052,-0.0163,-0.0195,-0.0299,-0.0302,-0.0286,-0.0288,-0.027,-0.0269,-0.0269,-0.0269,-0.0269,0,0.0176,0.0217,0.0247,0.0275,0.0343,0.0336,0.0392,0.0389,0.0394,0.0434,0.0347,0.0359,0.02,0.0117,-0.0013,-0.0163,-0.0145,-0.0288,-0.0321,-0.0265,-0.0264,-0.0281,-0.0282,-0.0272,-0.0271,-0.0271,-0.027,0,0.0222,0.0238,0.0303,0.0347,0.0367,0.0411,0.0465,0.0506,0.0491,0.0537,0.0534,0.0467,0.0355,0.0189,0.0017,-0.0114,-0.0262,-0.0322,-0.0247,-0.0271,-0.0389,-0.0386,-0.0444,-0.0445,-0.0447,-0.0448,-0.0449,0,0.0251,0.0289,0.0362,0.0408,0.043,0.0491,0.0544,0.0555,0.0605,0.0614,0.0654,0.0558,0.0516,0.0241,0.001,-0.0225,-0.0275,-0.036,-0.0375,-0.038,-0.0406,-0.0401,-0.0396,-0.033,-0.033,-0.033,-0.033,0,0.0313,0.0335,0.0391,0.0487,0.055,0.0631,0.0702,0.076,0.0783,0.0818,0.0848,0.0809,0.0563,0.0346,0.0008,-0.0151,-0.0322,-0.0369,-0.0385,-0.0299,-0.028,-0.0304,-0.0301,-0.033,-0.033,-0.033,-0.033,-0.033,0.0361,0.0412,0.0484,0.0576,0.0656,0.076,0.083,0.0931,0.1022,0.1099,0.1019,0.0978,0.0696,0.0302,0.0007,-0.0304,-0.0302,-0.0421,-0.0418,-0.0416,-0.0395,-0.038,-0.0444,-0.0445,-0.0445,-0.0446,-0.0446,0,0.0439,0.0479,0.0569,0.0679,0.0794,0.0804,0.0934,0.1046,0.1186,0.1229,0.1247,0.1004,0.0717,0.0385,-0.0052,-0.0338,-0.034,-0.0448,-0.038,-0.0378,-0.0377,-0.0352,-0.0391,-0.0392,-0.0393,-0.0394,0,0,0.0477,0.058,0.0624,0.0796,0.086,0.1037,0.1114,0.1271,0.1359,0.1436,0.139,0.1268,0.0839,0.0528,0.0141,-0.0121,-0.0184,-0.0174,-0.0185,-0.0056,-0.0051,-0.0328,-0.0283,0,0,0,0,0]}],[{"header":{"parameterUnit":"m.s-1","parameterCategory":2,"la1":30.2991,"la2":30.254,"lo1":-89.0895,"lo2":-89.0444,"dy":0.0017,"dx":0.0017,"nx":28,"ny":28,"refTime":"2025-12-28T09:00:00:Z","depth":"4","parameterNumber":2,"parameterNumberName":"U-component_of_CURRENTS"},"data":[0,0,0,0,0,0,0,0,0,0,0,0,0,0,0,0,0,0,0,0,0,0,0,0,0,0,0,0,0,0,0,0,0,0,0,0,0,0,0,0,0,0,0,0,0,0,0,0,0,0,0,0,0,0,0,0,0,0,0.1366,0.1367,0,0.1423,0.1424,0.1424,0.1476,0.1476,0.1477,0.1478,0.1547,0.1548,0.1549,0,0,0,0,0,0,0,0,0,0,0,0,0,0.1297,0.1298,0.1366,0.1367,0.1368,0.1423,0.1424,0.1425,0.1476,0.1477,0.1477,0.1478,0.1546,0.1548,0.1549,0,0,0,0,0,0,0,0,0,0,0,0,0,0.1336,0.1298,0.1366,0.1402,0.1405,0.1423,0.1424,0.1425,0.1475,0.1477,0.1478,0.1479,0.1546,0.1548,0.1549,0.1536,0,0,0.1554,0.1555,0,0,0,0,0,0,0,0,0.1334,0.1338,0.1395,0.1399,0.1404,0.1445,0.1425,0.1463,0.1475,0.1447,0.1478,0.1479,0.1514,0.1519,0.1524,0.1539,0.1542,0.1554,0.1555,0.1556,0.1557,0,0,0,0,0,0,0,0.1331,0.1336,0.1387,0.1396,0.1401,0.1413,0.142,0.1432,0.1472,0.1449,0.1454,0.1463,0.1516,0.1522,0.1526,0.1543,0.1554,0.1556,0.1557,0.1558,0.1661,0.1663,0,0,0,0,0,0,0.1327,0.1334,0.1385,0.1389,0.1373,0.1414,0.1421,0.1429,0.1472,0.148,0.1462,0.1465,0.1519,0.1524,0.1529,0.1616,0.1556,0.1558,0.1559,0.166,0.1662,0.1664,0,0,0,0,0,0,0.1325,0.1331,0.1383,0.1364,0.1372,0.1414,0.1422,0.143,0.147,0.1481,0.149,0.1498,0.152,0.1526,0.1576,0.1615,0.1558,0.156,0.1658,0.166,0.1663,0.1725,0,0,0,0,0,0,0.1323,0.133,0.1348,0.1364,0.1373,0.1416,0.1422,0.143,0.1472,0.1478,0.1514,0.152,0.1521,0.1573,0.1577,0.1616,0.1561,0.1655,0.1659,0.1662,0.1721,0.173,0.1737,0,0,0,0,0,0.132,0.1337,0.1349,0.1356,0.1392,0.1417,0.1424,0.1455,0.1473,0.1495,0.1526,0.1521,0.1597,0.1576,0.158,0.1621,0.1654,0.1658,0.1662,0.1717,0.1728,0.1737,0,0,0,0,0,0,0.1319,0.1345,0.1358,0.1383,0.1409,0.1427,0.1456,0.1472,0.1513,0.1531,0.154,0.1548,0.1606,0.1604,0.158,0.1661,0.1626,0.1631,0.1667,0.1677,0.1685,0.1685,0.1563,0,0,0,0,0,0.1325,0.1349,0.137,0.1396,0.1412,0.1439,0.146,0.1481,0.1511,0.1532,0.1559,0.159,0.1619,0.1642,0.1663,0.1704,0.1703,0.1734,0.1742,0.1749,0.1754,0.1784,0.1796,0.1677,0.1677,0.1677,0,0,0.1333,0.1351,0.1366,0.1399,0.1424,0.1453,0.1456,0.1498,0.1532,0.1532,0.16,0.162,0.1636,0.1687,0.1713,0.1696,0.1785,0.1754,0.176,0.1761,0.179,0.1801,0.1811,0.1679,0.1679,0.1679,0,0,0.1351,0.1378,0.1402,0.1427,0.147,0.1486,0.1505,0.1544,0.1576,0.163,0.1644,0.169,0.1735,0.1756,0.1769,0.1833,0.1826,0.1847,0.1892,0.1922,0.1932,0.194,0.1962,0.1972,0.1853,0.1853,0.1853,0,0.1362,0.1391,0.1414,0.1444,0.1473,0.1505,0.1539,0.1572,0.1626,0.1656,0.1666,0.175,0.1765,0.1823,0.1851,0.1852,0.1866,0.1852,0.1932,0.194,0.1948,0.1968,0.1978,0.1856,0.1856,0.1855,0.1855,0,0.1388,0.1425,0.1445,0.1493,0.1526,0.1563,0.1606,0.1653,0.1697,0.1727,0.1805,0.1831,0.1881,0.1897,0.1896,0.1964,0.1955,0.1937,0.1904,0.1964,0.1981,0.199,0.1861,0.186,0.1859,0.1858,0,0,0.1373,0.1448,0.1458,0.1492,0.1557,0.1584,0.1652,0.1712,0.1766,0.1823,0.1888,0.1945,0.1967,0.1984,0.1996,0.2024,0.2092,0.2012,0.2012,0.2028,0.2164,0.2035,0.2032,0.2092,0.2094,0.2096,0.2156,0,0.1389,0.1449,0.1485,0.1554,0.1589,0.1645,0.1702,0.1766,0.1826,0.1897,0.1939,0.2006,0.1998,0.2037,0.2067,0.2089,0.212,0.2078,0.2108,0.2109,0.1982,0.2039,0.2102,0.2163,0.2165,0.2166,0.2168,0,0.1394,0.1438,0.1504,0.1589,0.1612,0.1663,0.1765,0.1823,0.1919,0.1968,0.2039,0.2073,0.2143,0.212,0.2191,0.2169,0.2177,0.2182,0.2184,0.2045,0.1996,0.209,0.2184,0.2183,0.2182,0.218,0.2179,0,0.1361,0.1449,0.1505,0.1535,0.1635,0.1688,0.1752,0.1851,0.191,0.2025,0.2079,0.2154,0.2211,0.2235,0.2258,0.2237,0.2317,0.2283,0.2173,0.2164,0.2234,0.2224,0.2327,0.2327,0.2327,0.2327,0.2327,0,0.1345,0.1394,0.1503,0.1533,0.1609,0.169,0.1784,0.1855,0.1966,0.2035,0.2121,0.2177,0.2246,0.2294,0.2291,0.2264,0.2348,0.2189,0.2173,0.226,0.2252,0.2241,0.223,0.2329,0.2328,0.2328,0.2328,0,0.1292,0.1364,0.1434,0.1553,0.1595,0.1655,0.179,0.1852,0.1972,0.2066,0.2108,0.2222,0.228,0.2324,0.237,0.2299,0.2287,0.2255,0.236,0.2348,0.2106,0.2098,0.213,0.2126,0.2123,0.212,0.2118,0,0.1265,0.1299,0.1432,0.1477,0.1537,0.1639,0.1704,0.1838,0.1899,0.207,0.2098,0.2212,0.2266,0.2223,0.2284,0.2272,0.2241,0.222,0.2143,0.2106,0.2088,0.2085,0.2082,0.2112,0.2111,0.211,0.2109,0,0.121,0.1273,0.133,0.142,0.15,0.1574,0.1678,0.1707,0.1859,0.1988,0.2029,0.2056,0.2119,0.2136,0.215,0.2135,0.2222,0.2184,0.219,0.2117,0.2084,0.2069,0.207,0.2098,0.2099,0.21,0.2101,0,0.1171,0.1191,0.1274,0.1341,0.1433,0.1473,0.1543,0.1611,0.1681,0.186,0.1873,0.1987,0.2098,0.2068,0.2082,0.2059,0.2015,0.1931,0.1949,0.1963,0.1879,0.1811,0.1734,0,0,0,0,0,0.1118,0.1128,0.1187,0.1245,0.133,0.1379,0.1507,0.158,0.1724,0.1703,0.1779,0.1823,0.1846,0.1908,0.1847,0.2013,0.2028,0.1935,0.1941,0.2032,0.2046,0.1961,0,0,0,0,0,0,0.1081,0.1128,0.1146,0.1149,0.1168,0.1243,0.1316,0.142,0.1413,0.1565,0.1583,0.1701,0.1747,0.1845,0.1803,0.1823,0.1788,0.2011,0.2007,0.2025,0.2037,0.2048,0.1966,0,0,0,0,0]},{"header":{"parameterUnit":"m.s-1","parameterCategory":2,"la1":30.2991,"la2":30.254,"lo1":-89.0895,"lo2":-89.0444,"dy":0.0017,"dx":0.0017,"nx":28,"ny":28,"refTime":"2025-12-28T09:00:00:Z","depth":"4","parameterNumber":3,"parameterNumberName":"V-component_of_CURRENTS"},"data":[0,0,0,0,0,0,0,0,0,0,0,0,0,0,0,0,0,0,0,0,0,0,0,0,0,0,0,0,0,0,0,0,0,0,0,0,0,0,0,0,0,0,0,0,0,0,0,0,0,0,0,0,0,0,0,0,0,0,0.0349,0.0348,0,0.0307,0.0307,0.0306,0.0283,0.0283,0.0282,0.0282,0.0232,0.023,0.0229,0,0,0,0,0,0,0,0,0,0,0,0,0,0.0361,0.0361,0.0349,0.0348,0.0348,0.0308,0.0307,0.0306,0.0283,0.0283,0.0282,0.0282,0.0232,0.023,0.0229,0,0,0,0,0,0,0,0,0,0,0,0,0,0.0341,0.0361,0.0349,0.0332,0.033,0.0308,0.0307,0.0306,0.0283,0.0282,0.0282,0.0282,0.0233,0.0231,0.0229,0.0217,0,0,0.0223,0.0222,0,0,0,0,0,0,0,0,0.0342,0.034,0.0335,0.0333,0.0331,0.0301,0.0293,0.0276,0.0283,0.03,0.0282,0.0282,0.0254,0.0251,0.0242,0.0215,0.0213,0.0222,0.0221,0.022,0.022,0,0,0,0,0,0,0,0.0344,0.0342,0.0332,0.0334,0.0332,0.031,0.0308,0.0289,0.0277,0.0298,0.0297,0.0293,0.0253,0.0244,0.0241,0.0212,0.0222,0.0221,0.0219,0.0219,0.016,0.016,0,0,0,0,0,0,0.0353,0.0343,0.0333,0.0331,0.0337,0.031,0.0307,0.031,0.0277,0.0273,0.0293,0.0292,0.0247,0.0243,0.0239,0.0221,0.022,0.0218,0.0217,0.0161,0.016,0.016,0,0,0,0,0,0,0.0353,0.0352,0.0335,0.0336,0.0332,0.0311,0.0313,0.0309,0.0302,0.0274,0.0269,0.0291,0.0247,0.0241,0.0223,0.0219,0.0218,0.0216,0.0161,0.016,0.016,0.0187,0,0,0,0,0,0,0.0354,0.0353,0.0359,0.0337,0.0333,0.0325,0.0313,0.0308,0.03,0.0299,0.027,0.0265,0.0247,0.0226,0.0221,0.0216,0.0214,0.0161,0.0161,0.016,0.0187,0.0188,0.0189,0,0,0,0,0,0.0354,0.0364,0.036,0.0358,0.0342,0.0326,0.0321,0.0305,0.0301,0.0299,0.0279,0.0266,0.0218,0.0225,0.0219,0.0213,0.0162,0.0161,0.016,0.0186,0.0188,0.0189,0,0,0,0,0,0,0.0372,0.0362,0.0357,0.0363,0.0347,0.0322,0.0321,0.0309,0.0291,0.0291,0.0264,0.0258,0.0239,0.0222,0.023,0.0193,0.0187,0.0185,0.0209,0.021,0.021,0.0225,0.0212,0,0,0,0,0,0.038,0.0386,0.0367,0.0372,0.0367,0.0345,0.0337,0.0325,0.0306,0.0299,0.0277,0.0253,0.023,0.0218,0.0196,0.0179,0.0158,0.017,0.0171,0.0172,0.0178,0.0139,0.0137,0.0157,0.0157,0.0157,0,0,0.0389,0.0384,0.0388,0.0376,0.0365,0.0359,0.034,0.0332,0.0326,0.0296,0.0283,0.0257,0.0226,0.0205,0.0195,0.0192,0.0154,0.0171,0.0172,0.0178,0.0138,0.0136,0.0135,0.0157,0.0157,0.0157,0,0,0.0407,0.0406,0.0414,0.0403,0.0388,0.0373,0.0373,0.0349,0.0337,0.032,0.0295,0.0269,0.0236,0.0211,0.0194,0.0187,0.0161,0.0177,0.0193,0.0155,0.0153,0.0151,0.0121,0.0117,0.0177,0.0177,0.0177,0,0.0418,0.0427,0.0413,0.0414,0.0411,0.0383,0.0388,0.0369,0.034,0.0332,0.032,0.0265,0.0238,0.021,0.0205,0.0189,0.0167,0.0194,0.0157,0.0154,0.0152,0.0122,0.0116,0.0178,0.0178,0.0178,0.0178,0,0.0437,0.0444,0.0448,0.0444,0.0437,0.0436,0.0411,0.04,0.0383,0.0361,0.033,0.0288,0.0257,0.0238,0.0219,0.0188,0.0177,0.0164,0.0157,0.0152,0.012,0.0114,0.018,0.018,0.0179,0.0179,0,0,0.0464,0.0464,0.0466,0.0474,0.0455,0.0454,0.0443,0.0427,0.0425,0.0383,0.0373,0.0319,0.0294,0.0274,0.024,0.0203,0.0162,0.018,0.0177,0.0157,0.0082,0.0076,0.0068,0.0142,0.0141,0.014,0.0067,0,0.0485,0.0503,0.0493,0.051,0.052,0.0495,0.0492,0.0471,0.0444,0.0424,0.0371,0.0347,0.0308,0.0294,0.0249,0.0187,0.0148,0.0184,0.0085,0.0083,0.0082,0.0061,0.0137,0.0062,0.006,0.0059,0.0059,0,0.0508,0.0519,0.0545,0.0555,0.0558,0.0562,0.0558,0.0549,0.0508,0.0488,0.0445,0.0401,0.0343,0.0312,0.02,0.0226,0.0159,0.0106,0.0102,0.0084,0.0064,0.0067,0.0047,0.0048,0.0049,0.005,0.005,0,0.0542,0.0556,0.0584,0.0587,0.059,0.06,0.0598,0.0571,0.057,0.0527,0.0521,0.0439,0.0406,0.0309,0.0198,0.0197,0.0074,0.0059,-0.0011,-0.0012,0.0005,0.0008,-0.0022,-0.0022,-0.0021,-0.0021,-0.0021,0,0.0569,0.0593,0.0607,0.0623,0.066,0.0644,0.067,0.0652,0.0631,0.0636,0.0561,0.0541,0.0403,0.0315,0.021,0.0082,0.008,-0.0011,-0.0034,0.0018,0.0023,0.0001,0.0004,-0.0024,-0.0023,-0.0023,-0.0022,0,0.0601,0.061,0.0648,0.0668,0.068,0.0705,0.0724,0.0739,0.0712,0.0715,0.0706,0.0612,0.0498,0.0356,0.0195,0.0106,-0.002,-0.0065,0.0008,-0.001,-0.0084,-0.0078,-0.0151,-0.0152,-0.0152,-0.0153,-0.0153,0,0.0617,0.0643,0.0689,0.072,0.0734,0.0769,0.0799,0.0786,0.0799,0.076,0.0766,0.0657,0.0582,0.0354,0.0198,-0.0009,-0.004,-0.0105,-0.0104,-0.0082,-0.0098,-0.0091,-0.0085,-0.0155,-0.0155,-0.0155,-0.0155,0,0.0649,0.0673,0.0705,0.0772,0.0815,0.086,0.0894,0.0907,0.0893,0.0873,0.081,0.0679,0.0548,0.0359,0.0195,0.0047,-0.0065,-0.0114,-0.0114,-0.0113,-0.0088,-0.0102,-0.0094,-0.0158,-0.0158,-0.0157,-0.0157,0,0.0677,0.0707,0.0758,0.0814,0.0876,0.0926,0.094,0.0947,0.0948,0.0895,0.0873,0.0718,0.062,0.0387,0.0239,0.0088,0.0046,-0.0003,-0.001,-0.0009,0.005,0.0103,0.007,0,0,0,0,0,0.0697,0.0735,0.0793,0.0855,0.0919,0.0959,0.0995,0.1,0.0988,0.0953,0.0907,0.0781,0.054,0.0433,0.0281,0.0223,0.0023,0.004,-0.0035,-0.0173,-0.017,-0.0127,0,0,0,0,0,0,0.0709,0.077,0.0796,0.088,0.0935,0.1007,0.1036,0.1031,0.0999,0.0961,0.0836,0.0751,0.0521,0.0638,0.0286,0.0237,0.0168,-0.0077,-0.008,-0.0175,-0.0172,-0.0169,-0.0124,0,0,0,0,0]}]]